Year,Month,Day,Hour,Minute,Value (Times are PST for temperature in C)
2017,09,29,00,00,13.20
2017,09,29,00,01,13.20
2017,09,29,00,02,13.20
2017,09,29,00,03,13.20
2017,09,29,00,04,13.20
2017,09,29,00,05,13.20
2017,09,29,00,06,13.20
2017,09,29,00,07,13.20
2017,09,29,00,08,13.20
2017,09,29,00,09,13.20
2017,09,29,00,10,13.20
2017,09,29,00,11,13.20
2017,09,29,00,12,13.20
2017,09,29,00,13,13.20
2017,09,29,00,14,13.20
2017,09,29,00,15,13.20
2017,09,29,00,16,13.20
2017,09,29,00,17,13.20
2017,09,29,00,18,13.20
2017,09,29,00,19,13.20
2017,09,29,00,20,13.20
2017,09,29,00,21,13.20
2017,09,29,00,22,13.20
2017,09,29,00,23,13.20
2017,09,29,00,24,13.20
2017,09,29,00,25,13.20
2017,09,29,00,26,13.20
2017,09,29,00,27,13.20
2017,09,29,00,28,13.20
2017,09,29,00,29,13.20
2017,09,29,00,30,13.20
2017,09,29,00,31,13.20
2017,09,29,00,32,13.20
2017,09,29,00,33,13.20
2017,09,29,00,34,13.20
2017,09,29,00,35,13.20
2017,09,29,00,36,13.20
2017,09,29,00,37,13.20
2017,09,29,00,38,13.20
2017,09,29,00,39,13.20
2017,09,29,00,40,13.20
2017,09,29,00,41,13.20
2017,09,29,00,42,13.20
2017,09,29,00,43,13.30
2017,09,29,00,44,13.30
2017,09,29,00,45,13.30
2017,09,29,00,46,13.30
2017,09,29,00,47,13.30
2017,09,29,00,48,13.30
2017,09,29,00,49,13.30
2017,09,29,00,50,13.30
2017,09,29,00,51,13.30
2017,09,29,00,52,13.30
2017,09,29,00,53,13.30
2017,09,29,00,54,13.30
2017,09,29,00,55,13.30
2017,09,29,00,56,13.30
2017,09,29,00,57,13.30
2017,09,29,00,58,13.30
2017,09,29,00,59,13.30
2017,09,29,01,00,13.30
2017,09,29,01,01,13.30
2017,09,29,01,02,13.20
2017,09,29,01,03,13.20
2017,09,29,01,04,13.20
2017,09,29,01,05,13.20
2017,09,29,01,06,13.10
2017,09,29,01,07,13.10
2017,09,29,01,08,13.10
2017,09,29,01,09,13.10
2017,09,29,01,10,13.10
2017,09,29,01,11,13.00
2017,09,29,01,12,13.00
2017,09,29,01,13,13.00
2017,09,29,01,14,12.90
2017,09,29,01,15,12.90
2017,09,29,01,16,12.90
2017,09,29,01,17,12.90
2017,09,29,01,18,12.90
2017,09,29,01,19,12.90
2017,09,29,01,20,12.90
2017,09,29,01,21,12.80
2017,09,29,01,22,12.80
2017,09,29,01,23,12.80
2017,09,29,01,24,12.80
2017,09,29,01,25,12.80
2017,09,29,01,26,12.80
2017,09,29,01,27,12.80
2017,09,29,01,28,12.80
2017,09,29,01,29,12.80
2017,09,29,01,30,12.80
2017,09,29,01,31,12.80
2017,09,29,01,32,12.80
2017,09,29,01,33,12.80
2017,09,29,01,34,12.80
2017,09,29,01,35,12.80
2017,09,29,01,36,12.80
2017,09,29,01,37,12.80
2017,09,29,01,38,12.80
2017,09,29,01,39,12.80
2017,09,29,01,40,12.80
2017,09,29,01,41,12.80
2017,09,29,01,42,12.80
2017,09,29,01,43,12.80
2017,09,29,01,44,12.80
2017,09,29,01,45,12.80
2017,09,29,01,46,12.80
2017,09,29,01,47,12.80
2017,09,29,01,48,12.80
2017,09,29,01,49,12.80
2017,09,29,01,50,12.80
2017,09,29,01,51,12.80
2017,09,29,01,52,12.90
2017,09,29,01,53,12.90
2017,09,29,01,54,12.90
2017,09,29,01,55,12.90
2017,09,29,01,56,12.90
2017,09,29,01,57,12.90
2017,09,29,01,58,12.90
2017,09,29,01,59,13.00
2017,09,29,02,00,13.00
2017,09,29,02,01,13.00
2017,09,29,02,02,13.00
2017,09,29,02,03,13.00
2017,09,29,02,04,13.10
2017,09,29,02,05,13.10
2017,09,29,02,06,13.10
2017,09,29,02,07,13.10
2017,09,29,02,08,13.10
2017,09,29,02,09,13.10
2017,09,29,02,10,13.20
2017,09,29,02,11,13.20
2017,09,29,02,12,13.20
2017,09,29,02,13,13.20
2017,09,29,02,14,13.20
2017,09,29,02,15,13.20
2017,09,29,02,16,13.20
2017,09,29,02,17,13.20
2017,09,29,02,18,13.20
2017,09,29,02,19,13.20
2017,09,29,02,20,13.20
2017,09,29,02,21,13.20
2017,09,29,02,22,13.20
2017,09,29,02,23,13.20
2017,09,29,02,24,13.20
2017,09,29,02,25,13.20
2017,09,29,02,26,13.20
2017,09,29,02,27,13.20
2017,09,29,02,28,13.20
2017,09,29,02,29,13.20
2017,09,29,02,30,13.20
2017,09,29,02,31,13.30
2017,09,29,02,32,13.30
2017,09,29,02,33,13.30
2017,09,29,02,34,13.30
2017,09,29,02,35,13.30
2017,09,29,02,36,13.30
2017,09,29,02,37,13.30
2017,09,29,02,38,13.30
2017,09,29,02,39,13.30
2017,09,29,02,40,13.30
2017,09,29,02,41,13.30
2017,09,29,02,42,13.30
2017,09,29,02,43,13.30
2017,09,29,02,44,13.40
2017,09,29,02,45,13.40
2017,09,29,02,46,13.40
2017,09,29,02,47,13.40
2017,09,29,02,48,13.40
2017,09,29,02,49,13.40
2017,09,29,02,50,13.40
2017,09,29,02,51,13.40
2017,09,29,02,52,13.40
2017,09,29,02,53,13.40
2017,09,29,02,54,13.40
2017,09,29,02,55,13.40
2017,09,29,02,56,13.40
2017,09,29,02,57,13.40
2017,09,29,02,58,13.40
2017,09,29,02,59,13.40
2017,09,29,03,00,13.40
2017,09,29,03,01,13.40
2017,09,29,03,02,13.40
2017,09,29,03,03,13.40
2017,09,29,03,04,13.40
2017,09,29,03,05,13.40
2017,09,29,03,06,13.40
2017,09,29,03,07,13.40
2017,09,29,03,08,13.50
2017,09,29,03,09,13.50
2017,09,29,03,10,13.50
2017,09,29,03,11,13.50
2017,09,29,03,12,13.50
2017,09,29,03,13,13.60
2017,09,29,03,14,13.60
2017,09,29,03,15,13.60
2017,09,29,03,16,13.60
2017,09,29,03,17,13.60
2017,09,29,03,18,13.60
2017,09,29,03,19,13.60
2017,09,29,03,20,13.60
2017,09,29,03,21,13.60
2017,09,29,03,22,13.60
2017,09,29,03,23,13.70
2017,09,29,03,24,13.70
2017,09,29,03,25,13.70
2017,09,29,03,26,13.70
2017,09,29,03,27,13.70
2017,09,29,03,28,13.70
2017,09,29,03,29,13.70
2017,09,29,03,30,13.70
2017,09,29,03,31,13.70
2017,09,29,03,32,13.70
2017,09,29,03,33,13.70
2017,09,29,03,34,13.80
2017,09,29,03,35,13.80
2017,09,29,03,36,13.80
2017,09,29,03,37,13.80
2017,09,29,03,38,13.80
2017,09,29,03,39,13.80
2017,09,29,03,40,13.80
2017,09,29,03,41,13.80
2017,09,29,03,42,13.80
2017,09,29,03,43,13.80
2017,09,29,03,44,13.80
2017,09,29,03,45,13.80
2017,09,29,03,46,13.80
2017,09,29,03,47,13.80
2017,09,29,03,48,13.80
2017,09,29,03,49,13.90
2017,09,29,03,50,13.90
2017,09,29,03,51,13.90
2017,09,29,03,52,13.90
2017,09,29,03,53,13.90
2017,09,29,03,54,13.90
2017,09,29,03,55,13.90
2017,09,29,03,56,13.90
2017,09,29,03,57,13.90
2017,09,29,03,58,13.90
2017,09,29,03,59,13.90
2017,09,29,04,00,13.90
2017,09,29,04,01,13.90
2017,09,29,04,02,13.90
2017,09,29,04,03,13.90
2017,09,29,04,04,13.90
2017,09,29,04,05,13.90
2017,09,29,04,06,14.00
2017,09,29,04,07,14.00
2017,09,29,04,08,14.00
2017,09,29,04,09,14.00
2017,09,29,04,10,14.00
2017,09,29,04,11,14.00
2017,09,29,04,12,14.00
2017,09,29,04,13,14.00
2017,09,29,04,14,14.00
2017,09,29,04,15,14.00
2017,09,29,04,16,14.00
2017,09,29,04,17,14.00
2017,09,29,04,18,14.00
2017,09,29,04,19,14.00
2017,09,29,04,20,14.00
2017,09,29,04,21,14.00
2017,09,29,04,22,14.00
2017,09,29,04,23,14.10
2017,09,29,04,24,14.10
2017,09,29,04,25,14.10
2017,09,29,04,26,14.10
2017,09,29,04,27,14.10
2017,09,29,04,28,14.10
2017,09,29,04,29,14.10
2017,09,29,04,30,14.10
2017,09,29,04,31,14.10
2017,09,29,04,32,14.20
2017,09,29,04,33,14.20
2017,09,29,04,34,14.20
2017,09,29,04,35,14.20
2017,09,29,04,36,14.30
2017,09,29,04,37,14.30
2017,09,29,04,38,14.30
2017,09,29,04,39,14.30
2017,09,29,04,40,14.30
2017,09,29,04,41,14.30
2017,09,29,04,42,14.30
2017,09,29,04,43,14.30
2017,09,29,04,44,14.40
2017,09,29,04,45,14.40
2017,09,29,04,46,14.40
2017,09,29,04,47,14.40
2017,09,29,04,48,14.50
2017,09,29,04,49,14.50
2017,09,29,04,50,14.60
2017,09,29,04,51,14.60
2017,09,29,04,52,14.60
2017,09,29,04,53,14.60
2017,09,29,04,54,14.60
2017,09,29,04,55,14.60
2017,09,29,04,56,14.60
2017,09,29,04,57,14.70
2017,09,29,04,58,14.70
2017,09,29,04,59,14.70
2017,09,29,05,00,14.70
2017,09,29,05,01,14.70
2017,09,29,05,02,14.70
2017,09,29,05,03,14.70
2017,09,29,05,04,14.70
2017,09,29,05,05,14.70
2017,09,29,05,06,14.70
2017,09,29,05,07,14.70
2017,09,29,05,08,14.70
2017,09,29,05,09,14.70
2017,09,29,05,10,14.70
2017,09,29,05,11,14.70
2017,09,29,05,12,14.80
2017,09,29,05,13,14.80
2017,09,29,05,14,14.80
2017,09,29,05,15,14.80
2017,09,29,05,16,14.80
2017,09,29,05,17,14.80
2017,09,29,05,18,14.80
2017,09,29,05,19,14.90
2017,09,29,05,20,14.90
2017,09,29,05,21,14.90
2017,09,29,05,22,14.90
2017,09,29,05,23,14.90
2017,09,29,05,24,14.90
2017,09,29,05,25,14.90
2017,09,29,05,26,14.90
2017,09,29,05,27,14.90
2017,09,29,05,28,14.90
2017,09,29,05,29,14.90
2017,09,29,05,30,14.90
2017,09,29,05,31,14.90
2017,09,29,05,32,14.90
2017,09,29,05,33,14.90
2017,09,29,05,34,14.90
2017,09,29,05,35,14.90
2017,09,29,05,36,14.90
2017,09,29,05,37,14.90
2017,09,29,05,38,14.90
2017,09,29,05,39,14.90
2017,09,29,05,40,14.90
2017,09,29,05,41,14.90
2017,09,29,05,42,14.90
2017,09,29,05,43,14.90
2017,09,29,05,44,14.90
2017,09,29,05,45,14.90
2017,09,29,05,46,14.90
2017,09,29,05,47,14.90
2017,09,29,05,48,14.90
2017,09,29,05,49,14.90
2017,09,29,05,50,14.90
2017,09,29,05,51,15.00
2017,09,29,05,52,15.00
2017,09,29,05,53,15.00
2017,09,29,05,54,15.00
2017,09,29,05,55,15.00
2017,09,29,05,56,15.10
2017,09,29,05,57,15.10
2017,09,29,05,58,15.10
2017,09,29,05,59,15.10
2017,09,29,06,00,15.10
2017,09,29,06,01,15.10
2017,09,29,06,02,15.10
2017,09,29,06,03,15.10
2017,09,29,06,04,15.10
2017,09,29,06,05,15.10
2017,09,29,06,06,15.20
2017,09,29,06,07,15.20
2017,09,29,06,08,15.20
2017,09,29,06,09,15.20
2017,09,29,06,10,15.20
2017,09,29,06,11,15.20
2017,09,29,06,12,15.20
2017,09,29,06,13,15.20
2017,09,29,06,14,15.20
2017,09,29,06,15,15.20
2017,09,29,06,16,15.20
2017,09,29,06,17,15.20
2017,09,29,06,18,15.20
2017,09,29,06,19,15.20
2017,09,29,06,20,15.20
2017,09,29,06,21,15.20
2017,09,29,06,22,15.20
2017,09,29,06,23,15.20
2017,09,29,06,24,15.20
2017,09,29,06,25,15.20
2017,09,29,06,26,15.20
2017,09,29,06,27,15.20
2017,09,29,06,28,15.20
2017,09,29,06,29,15.10
2017,09,29,06,30,15.10
2017,09,29,06,31,15.10
2017,09,29,06,32,15.10
2017,09,29,06,33,15.10
2017,09,29,06,34,15.10
2017,09,29,06,35,15.10
2017,09,29,06,36,15.10
2017,09,29,06,37,15.10
2017,09,29,06,38,15.10
2017,09,29,06,39,15.10
2017,09,29,06,40,15.10
2017,09,29,06,41,15.00
2017,09,29,06,42,15.00
2017,09,29,06,43,15.00
2017,09,29,06,44,15.00
2017,09,29,06,45,15.00
2017,09,29,06,46,15.00
2017,09,29,06,47,15.00
2017,09,29,06,48,14.90
2017,09,29,06,49,14.90
2017,09,29,06,50,14.90
2017,09,29,06,51,14.90
2017,09,29,06,52,14.90
2017,09,29,06,53,14.90
2017,09,29,06,54,14.90
2017,09,29,06,55,14.90
2017,09,29,06,56,14.90
2017,09,29,06,57,14.90
2017,09,29,06,58,14.90
2017,09,29,06,59,14.90
2017,09,29,07,00,14.90
2017,09,29,07,01,14.90
2017,09,29,07,02,14.80
2017,09,29,07,03,14.80
2017,09,29,07,04,14.80
2017,09,29,07,05,14.80
2017,09,29,07,06,14.80
2017,09,29,07,07,14.80
2017,09,29,07,08,14.80
2017,09,29,07,09,14.80
2017,09,29,07,10,14.80
2017,09,29,07,11,14.80
2017,09,29,07,12,14.80
2017,09,29,07,13,14.70
2017,09,29,07,14,14.70
2017,09,29,07,15,14.70
2017,09,29,07,16,14.70
2017,09,29,07,17,14.70
2017,09,29,07,18,14.70
2017,09,29,07,19,14.70
2017,09,29,07,20,14.70
2017,09,29,07,21,14.70
2017,09,29,07,22,14.70
2017,09,29,07,23,14.70
2017,09,29,07,24,14.70
2017,09,29,07,25,14.70
2017,09,29,07,26,14.70
2017,09,29,07,27,14.70
2017,09,29,07,28,14.70
2017,09,29,07,29,14.70
2017,09,29,07,30,14.60
2017,09,29,07,31,14.60
2017,09,29,07,32,14.60
2017,09,29,07,33,14.60
2017,09,29,07,34,14.60
2017,09,29,07,35,14.60
2017,09,29,07,36,14.60
2017,09,29,07,37,14.60
2017,09,29,07,38,14.60
2017,09,29,07,39,14.60
2017,09,29,07,40,14.60
2017,09,29,07,41,14.60
2017,09,29,07,42,14.60
2017,09,29,07,43,14.60
2017,09,29,07,44,14.60
2017,09,29,07,45,14.60
2017,09,29,07,46,14.60
2017,09,29,07,47,14.60
2017,09,29,07,48,14.50
2017,09,29,07,49,14.50
2017,09,29,07,50,14.50
2017,09,29,07,51,14.50
2017,09,29,07,52,14.50
2017,09,29,07,53,14.50
2017,09,29,07,54,14.50
2017,09,29,07,55,14.50
2017,09,29,07,56,14.40
2017,09,29,07,57,14.40
2017,09,29,07,58,14.40
2017,09,29,07,59,14.40
2017,09,29,08,00,14.40
2017,09,29,08,01,14.40
2017,09,29,08,02,14.40
2017,09,29,08,03,14.40
2017,09,29,08,04,14.40
2017,09,29,08,05,14.40
2017,09,29,08,06,14.40
2017,09,29,08,07,14.40
2017,09,29,08,08,14.40
2017,09,29,08,09,14.30
2017,09,29,08,10,14.40
2017,09,29,08,11,14.40
2017,09,29,08,12,14.30
2017,09,29,08,13,14.30
2017,09,29,08,14,14.30
2017,09,29,08,15,14.30
2017,09,29,08,16,14.30
2017,09,29,08,17,14.30
2017,09,29,08,18,14.30
2017,09,29,08,19,14.30
2017,09,29,08,20,14.30
2017,09,29,08,21,14.30
2017,09,29,08,22,14.30
2017,09,29,08,23,14.30
2017,09,29,08,24,14.30
2017,09,29,08,25,14.30
2017,09,29,08,26,14.30
2017,09,29,08,27,14.30
2017,09,29,08,28,14.30
2017,09,29,08,29,14.30
2017,09,29,08,30,14.30
2017,09,29,08,31,14.30
2017,09,29,08,32,14.30
2017,09,29,08,33,14.30
2017,09,29,08,34,14.30
2017,09,29,08,35,14.30
2017,09,29,08,36,14.30
2017,09,29,08,37,14.30
2017,09,29,08,38,14.30
2017,09,29,08,39,14.30
2017,09,29,08,40,14.30
2017,09,29,08,41,14.30
2017,09,29,08,42,14.30
2017,09,29,08,43,14.30
2017,09,29,08,44,14.30
2017,09,29,08,45,14.20
2017,09,29,08,46,14.20
2017,09,29,08,47,14.20
2017,09,29,08,48,14.20
2017,09,29,08,49,14.20
2017,09,29,08,50,14.20
2017,09,29,08,51,14.20
2017,09,29,08,52,14.20
2017,09,29,08,53,14.20
2017,09,29,08,54,14.20
2017,09,29,08,55,14.20
2017,09,29,08,56,14.20
2017,09,29,08,57,14.20
2017,09,29,08,58,14.20
2017,09,29,08,59,14.20
2017,09,29,09,00,14.20
2017,09,29,09,01,14.20
2017,09,29,09,02,14.30
2017,09,29,09,03,14.30
2017,09,29,09,04,14.30
2017,09,29,09,05,14.30
2017,09,29,09,06,14.30
2017,09,29,09,07,14.30
2017,09,29,09,08,14.30
2017,09,29,09,09,14.30
2017,09,29,09,10,14.30
2017,09,29,09,11,14.30
2017,09,29,09,12,14.30
2017,09,29,09,13,14.30
2017,09,29,09,14,14.30
2017,09,29,09,15,14.30
2017,09,29,09,16,14.40
2017,09,29,09,17,14.40
2017,09,29,09,18,14.40
2017,09,29,09,19,14.40
2017,09,29,09,20,14.40
2017,09,29,09,21,14.40
2017,09,29,09,22,14.50
2017,09,29,09,23,14.50
2017,09,29,09,24,14.50
2017,09,29,09,25,14.50
2017,09,29,09,26,14.60
2017,09,29,09,27,14.60
2017,09,29,09,28,14.60
2017,09,29,09,29,14.60
2017,09,29,09,30,14.60
2017,09,29,09,31,14.60
2017,09,29,09,32,14.70
2017,09,29,09,33,14.70
2017,09,29,09,34,14.70
2017,09,29,09,35,14.70
2017,09,29,09,36,14.70
2017,09,29,09,37,14.70
2017,09,29,09,38,14.70
2017,09,29,09,39,14.80
2017,09,29,09,40,14.80
2017,09,29,09,41,14.80
2017,09,29,09,42,14.80
2017,09,29,09,43,14.80
2017,09,29,09,44,14.80
2017,09,29,09,45,14.80
2017,09,29,09,46,14.80
2017,09,29,09,47,14.90
2017,09,29,09,48,14.90
2017,09,29,09,49,14.90
2017,09,29,09,50,14.90
2017,09,29,09,51,14.90
2017,09,29,09,52,15.00
2017,09,29,09,53,15.00
2017,09,29,09,54,15.00
2017,09,29,09,55,15.00
2017,09,29,09,56,15.00
2017,09,29,09,57,15.00
2017,09,29,09,58,15.00
2017,09,29,09,59,15.10
2017,09,29,10,00,15.10
2017,09,29,10,01,15.10
2017,09,29,10,02,15.10
2017,09,29,10,03,15.20
2017,09,29,10,04,15.20
2017,09,29,10,05,15.20
2017,09,29,10,06,15.20
2017,09,29,10,07,15.20
2017,09,29,10,08,15.30
2017,09,29,10,09,15.30
2017,09,29,10,10,15.30
2017,09,29,10,11,15.30
2017,09,29,10,12,15.30
2017,09,29,10,13,15.30
2017,09,29,10,14,15.30
2017,09,29,10,15,15.30
2017,09,29,10,16,15.30
2017,09,29,10,17,15.40
2017,09,29,10,18,15.40
2017,09,29,10,19,15.40
2017,09,29,10,20,15.40
2017,09,29,10,21,15.40
2017,09,29,10,22,15.40
2017,09,29,10,23,15.40
2017,09,29,10,24,15.50
2017,09,29,10,25,15.50
2017,09,29,10,26,15.50
2017,09,29,10,27,15.50
2017,09,29,10,28,15.50
2017,09,29,10,29,15.60
2017,09,29,10,30,15.60
2017,09,29,10,31,15.60
2017,09,29,10,32,15.60
2017,09,29,10,33,15.60
2017,09,29,10,34,15.60
2017,09,29,10,35,15.60
2017,09,29,10,36,15.60
2017,09,29,10,37,15.60
2017,09,29,10,38,15.70
2017,09,29,10,39,15.70
2017,09,29,10,40,15.70
2017,09,29,10,41,15.70
2017,09,29,10,42,15.70
2017,09,29,10,43,15.70
2017,09,29,10,44,15.70
2017,09,29,10,45,15.70
2017,09,29,10,46,15.70
2017,09,29,10,47,15.70
2017,09,29,10,48,15.70
2017,09,29,10,49,15.70
2017,09,29,10,50,15.70
2017,09,29,10,51,15.70
2017,09,29,10,52,15.70
2017,09,29,10,53,15.70
2017,09,29,10,54,15.70
2017,09,29,10,55,15.70
2017,09,29,10,56,15.70
2017,09,29,10,57,15.70
2017,09,29,10,58,15.70
2017,09,29,10,59,15.70
2017,09,29,11,00,15.70
2017,09,29,11,01,15.70
2017,09,29,11,02,15.80
2017,09,29,11,03,15.80
2017,09,29,11,04,15.80
2017,09,29,11,05,15.80
2017,09,29,11,06,15.80
2017,09,29,11,07,15.80
2017,09,29,11,08,15.80
2017,09,29,11,09,15.80
2017,09,29,11,10,15.80
2017,09,29,11,11,15.80
2017,09,29,11,12,15.80
2017,09,29,11,13,15.80
2017,09,29,11,14,15.80
2017,09,29,11,15,15.80
2017,09,29,11,16,15.80
2017,09,29,11,17,15.80
2017,09,29,11,18,15.90
2017,09,29,11,19,15.90
2017,09,29,11,20,15.90
2017,09,29,11,21,15.90
2017,09,29,11,22,15.90
2017,09,29,11,23,15.80
2017,09,29,11,24,15.80
2017,09,29,11,25,15.80
2017,09,29,11,26,15.80
2017,09,29,11,27,15.80
2017,09,29,11,28,15.80
2017,09,29,11,29,15.80
2017,09,29,11,30,15.80
2017,09,29,11,31,15.80
2017,09,29,11,32,15.80
2017,09,29,11,33,15.80
2017,09,29,11,34,15.80
2017,09,29,11,35,15.80
2017,09,29,11,36,15.80
2017,09,29,11,37,15.80
2017,09,29,11,38,15.80
2017,09,29,11,39,15.90
2017,09,29,11,40,15.80
2017,09,29,11,41,15.90
2017,09,29,11,42,15.90
2017,09,29,11,43,15.90
2017,09,29,11,44,15.90
2017,09,29,11,45,15.90
2017,09,29,11,46,15.90
2017,09,29,11,47,15.90
2017,09,29,11,48,15.90
2017,09,29,11,49,15.90
2017,09,29,11,50,15.90
2017,09,29,11,51,15.90
2017,09,29,11,52,15.90
2017,09,29,11,53,15.90
2017,09,29,11,54,15.90
2017,09,29,11,55,15.90
2017,09,29,11,56,15.90
2017,09,29,11,57,15.90
2017,09,29,11,58,15.90
2017,09,29,11,59,15.90
2017,09,29,12,00,15.90
2017,09,29,12,01,15.90
2017,09,29,12,02,15.90
2017,09,29,12,03,15.90
2017,09,29,12,04,15.90
2017,09,29,12,05,16.00
2017,09,29,12,06,16.00
2017,09,29,12,07,16.00
2017,09,29,12,08,16.00
2017,09,29,12,09,16.00
2017,09,29,12,10,16.00
2017,09,29,12,11,16.00
2017,09,29,12,12,16.00
2017,09,29,12,13,16.00
2017,09,29,12,14,16.00
2017,09,29,12,15,16.00
2017,09,29,12,16,16.00
2017,09,29,12,17,16.00
2017,09,29,12,18,16.00
2017,09,29,12,19,16.00
2017,09,29,12,20,16.00
2017,09,29,12,21,16.00
2017,09,29,12,22,16.00
2017,09,29,12,23,16.10
2017,09,29,12,24,16.10
2017,09,29,12,25,16.10
2017,09,29,12,26,16.10
2017,09,29,12,27,16.20
2017,09,29,12,28,16.20
2017,09,29,12,29,16.20
2017,09,29,12,30,16.20
2017,09,29,12,31,16.30
2017,09,29,12,32,16.30
2017,09,29,12,33,16.40
2017,09,29,12,34,16.40
2017,09,29,12,35,16.40
2017,09,29,12,36,16.50
2017,09,29,12,37,16.60
2017,09,29,12,38,16.60
2017,09,29,12,39,16.70
2017,09,29,12,40,16.70
2017,09,29,12,41,16.80
2017,09,29,12,42,16.80
2017,09,29,12,43,16.80
2017,09,29,12,44,16.90
2017,09,29,12,45,16.90
2017,09,29,12,46,16.90
2017,09,29,12,47,16.90
2017,09,29,12,48,17.00
2017,09,29,12,49,17.00
2017,09,29,12,50,17.10
2017,09,29,12,51,17.10
2017,09,29,12,52,17.10
2017,09,29,12,53,17.10
2017,09,29,12,54,17.10
2017,09,29,12,55,17.10
2017,09,29,12,56,17.20
2017,09,29,12,57,17.20
2017,09,29,12,58,17.20
2017,09,29,12,59,17.20
2017,09,29,13,00,17.30
2017,09,29,13,01,17.30
2017,09,29,13,02,17.40
2017,09,29,13,03,17.40
2017,09,29,13,04,17.50
2017,09,29,13,05,17.50
2017,09,29,13,06,17.60
2017,09,29,13,07,17.60
2017,09,29,13,08,17.70
2017,09,29,13,09,17.70
2017,09,29,13,10,17.80
2017,09,29,13,11,17.80
2017,09,29,13,12,17.90
2017,09,29,13,13,17.90
2017,09,29,13,14,18.00
2017,09,29,13,15,18.00
2017,09,29,13,16,18.10
2017,09,29,13,17,18.20
2017,09,29,13,18,18.20
2017,09,29,13,19,18.30
2017,09,29,13,20,18.30
2017,09,29,13,21,18.40
2017,09,29,13,22,18.50
2017,09,29,13,23,18.50
2017,09,29,13,24,18.60
2017,09,29,13,25,18.70
2017,09,29,13,26,18.70
2017,09,29,13,27,18.70
2017,09,29,13,28,18.80
2017,09,29,13,29,18.80
2017,09,29,13,30,18.80
2017,09,29,13,31,18.80
2017,09,29,13,32,18.80
2017,09,29,13,33,18.80
2017,09,29,13,34,18.80
2017,09,29,13,35,18.70
2017,09,29,13,36,18.70
2017,09,29,13,37,18.70
2017,09,29,13,38,18.70
2017,09,29,13,39,18.70
2017,09,29,13,40,18.70
2017,09,29,13,41,18.80
2017,09,29,13,42,18.80
2017,09,29,13,43,18.80
2017,09,29,13,44,18.90
2017,09,29,13,45,18.90
2017,09,29,13,46,19.00
2017,09,29,13,47,19.00
2017,09,29,13,48,19.10
2017,09,29,13,49,19.20
2017,09,29,13,50,19.30
2017,09,29,13,51,19.30
2017,09,29,13,52,19.40
2017,09,29,13,53,19.50
2017,09,29,13,54,19.50
2017,09,29,13,55,19.60
2017,09,29,13,56,19.60
2017,09,29,13,57,19.70
2017,09,29,13,58,19.70
2017,09,29,13,59,19.70
2017,09,29,14,00,19.70
2017,09,29,14,01,19.80
2017,09,29,14,02,19.80
2017,09,29,14,03,19.80
2017,09,29,14,04,19.70
2017,09,29,14,05,19.70
2017,09,29,14,06,19.70
2017,09,29,14,07,19.60
2017,09,29,14,08,19.50
2017,09,29,14,09,19.40
2017,09,29,14,10,19.30
2017,09,29,14,11,19.10
2017,09,29,14,12,19.00
2017,09,29,14,13,18.80
2017,09,29,14,14,18.70
2017,09,29,14,15,18.50
2017,09,29,14,16,18.40
2017,09,29,14,17,18.20
2017,09,29,14,18,18.10
2017,09,29,14,19,18.00
2017,09,29,14,20,17.90
2017,09,29,14,21,17.80
2017,09,29,14,22,17.70
2017,09,29,14,23,17.70
2017,09,29,14,24,17.60
2017,09,29,14,25,17.60
2017,09,29,14,26,17.60
2017,09,29,14,27,17.50
2017,09,29,14,28,17.50
2017,09,29,14,29,17.50
2017,09,29,14,30,17.50
2017,09,29,14,31,17.50
2017,09,29,14,32,17.50
2017,09,29,14,33,17.60
2017,09,29,14,34,17.60
2017,09,29,14,35,17.60
2017,09,29,14,36,17.60
2017,09,29,14,37,17.70
2017,09,29,14,38,17.70
2017,09,29,14,39,17.80
2017,09,29,14,40,17.80
2017,09,29,14,41,17.80
2017,09,29,14,42,17.80
2017,09,29,14,43,17.80
2017,09,29,14,44,17.80
2017,09,29,14,45,17.80
2017,09,29,14,46,17.80
2017,09,29,14,47,17.80
2017,09,29,14,48,17.70
2017,09,29,14,49,17.70
2017,09,29,14,50,17.60
2017,09,29,14,51,17.60
2017,09,29,14,52,17.50
2017,09,29,14,53,17.50
2017,09,29,14,54,17.40
2017,09,29,14,55,17.40
2017,09,29,14,56,17.40
2017,09,29,14,57,17.40
2017,09,29,14,58,17.40
2017,09,29,14,59,17.40
2017,09,29,15,00,17.30
2017,09,29,15,01,17.30
2017,09,29,15,02,17.30
2017,09,29,15,03,17.30
2017,09,29,15,04,17.30
2017,09,29,15,05,17.30
2017,09,29,15,06,17.30
2017,09,29,15,07,17.30
2017,09,29,15,08,17.30
2017,09,29,15,09,17.30
2017,09,29,15,10,17.30
2017,09,29,15,11,17.30
2017,09,29,15,12,17.30
2017,09,29,15,13,17.30
2017,09,29,15,14,17.30
2017,09,29,15,15,17.30
2017,09,29,15,16,17.30
2017,09,29,15,17,17.30
2017,09,29,15,18,17.30
2017,09,29,15,19,17.30
2017,09,29,15,20,17.30
2017,09,29,15,21,17.30
2017,09,29,15,22,17.40
2017,09,29,15,23,17.40
2017,09,29,15,24,17.40
2017,09,29,15,25,17.40
2017,09,29,15,26,17.40
2017,09,29,15,27,17.40
2017,09,29,15,28,17.40
2017,09,29,15,29,17.40
2017,09,29,15,30,17.30
2017,09,29,15,31,17.30
2017,09,29,15,32,17.30
2017,09,29,15,33,17.20
2017,09,29,15,34,17.20
2017,09,29,15,35,17.10
2017,09,29,15,36,17.10
2017,09,29,15,37,17.00
2017,09,29,15,38,16.90
2017,09,29,15,39,16.80
2017,09,29,15,40,16.70
2017,09,29,15,41,16.70
2017,09,29,15,42,16.60
2017,09,29,15,43,16.50
2017,09,29,15,44,16.50
2017,09,29,15,45,16.40
2017,09,29,15,46,16.40
2017,09,29,15,47,16.40
2017,09,29,15,48,16.40
2017,09,29,15,49,16.30
2017,09,29,15,50,16.30
2017,09,29,15,51,16.30
2017,09,29,15,52,16.30
2017,09,29,15,53,16.30
2017,09,29,15,54,16.20
2017,09,29,15,55,16.20
2017,09,29,15,56,16.20
2017,09,29,15,57,16.20
2017,09,29,15,58,16.20
2017,09,29,15,59,16.20
2017,09,29,16,00,16.10
2017,09,29,16,01,16.10
2017,09,29,16,02,16.10
2017,09,29,16,03,16.10
2017,09,29,16,04,16.10
2017,09,29,16,05,16.10
2017,09,29,16,06,16.10
2017,09,29,16,07,16.20
2017,09,29,16,08,16.20
2017,09,29,16,09,16.20
2017,09,29,16,10,16.30
2017,09,29,16,11,16.30
2017,09,29,16,12,16.40
2017,09,29,16,13,16.50
2017,09,29,16,14,16.60
2017,09,29,16,15,16.70
2017,09,29,16,16,16.80
2017,09,29,16,17,16.80
2017,09,29,16,18,16.90
2017,09,29,16,19,17.00
2017,09,29,16,20,17.00
2017,09,29,16,21,17.10
2017,09,29,16,22,17.10
2017,09,29,16,23,17.20
2017,09,29,16,24,17.20
2017,09,29,16,25,17.20
2017,09,29,16,26,17.30
2017,09,29,16,27,17.30
2017,09,29,16,28,17.30
2017,09,29,16,29,17.30
2017,09,29,16,30,17.40
2017,09,29,16,31,17.40
2017,09,29,16,32,17.40
2017,09,29,16,33,17.40
2017,09,29,16,34,17.50
2017,09,29,16,35,17.50
2017,09,29,16,36,17.50
2017,09,29,16,37,17.60
2017,09,29,16,38,17.60
2017,09,29,16,39,17.60
2017,09,29,16,40,17.60
2017,09,29,16,41,17.60
2017,09,29,16,42,17.60
2017,09,29,16,43,17.60
2017,09,29,16,44,17.60
2017,09,29,16,45,17.60
2017,09,29,16,46,17.60
2017,09,29,16,47,17.60
2017,09,29,16,48,17.60
2017,09,29,16,49,17.60
2017,09,29,16,50,17.60
2017,09,29,16,51,17.60
2017,09,29,16,52,17.60
2017,09,29,16,53,17.60
2017,09,29,16,54,17.50
2017,09,29,16,55,17.50
2017,09,29,16,56,17.40
2017,09,29,16,57,17.40
2017,09,29,16,58,17.30
2017,09,29,16,59,17.30
2017,09,29,17,00,17.20
2017,09,29,17,01,17.20
2017,09,29,17,02,17.10
2017,09,29,17,03,17.10
2017,09,29,17,04,17.00
2017,09,29,17,05,17.00
2017,09,29,17,06,16.90
2017,09,29,17,07,16.90
2017,09,29,17,08,16.90
2017,09,29,17,09,16.80
2017,09,29,17,10,16.80
2017,09,29,17,11,16.80
2017,09,29,17,12,16.80
2017,09,29,17,13,16.80
2017,09,29,17,14,16.80
2017,09,29,17,15,16.80
2017,09,29,17,16,16.80
2017,09,29,17,17,16.80
2017,09,29,17,18,16.80
2017,09,29,17,19,16.80